| time (UTC) | temp F | wind direction | speed MPH | gust MPH | rain 1hr in | rain 24hr in | rain mn in | humidity % | barometer mb |
| 20260505214003 | 62 | 32 | 2.0 | 2.0 | 0.00 | 0.00 | 0.00 | 70 | 1014.9 |
| 20260505213003 | 62 | 32 | 0.0 | 2.0 | 0.00 | 0.00 | 0.00 | 69 | 1015.0 |
| 20260505212003 | 62 | 32 | 1.0 | 2.0 | 0.00 | 0.00 | 0.00 | 69 | 1015.1 |
| 20260505211004 | 62 | 32 | 0.0 | 2.0 | 0.00 | 0.00 | 0.00 | 69 | 1015.0 |
| 20260505210003 | 62 | 34 | 2.0 | 3.0 | 0.00 | 0.00 | 0.00 | 69 | 1014.9 |
| 20260505205004 | 63 | 34 | 0.0 | 2.0 | 0.00 | 0.00 | 0.00 | 68 | 1015.0 |
| 20260505204004 | 63 | 149 | 0.0 | 0.0 | 0.00 | 0.00 | 0.00 | 68 | 1014.9 |
| 20260505203004 | 62 | 149 | 0.0 | 0.0 | 0.00 | 0.00 | 0.00 | 69 | 1014.9 |
| 20260505202004 | 62 | 149 | 0.0 | 1.0 | 0.00 | 0.00 | 0.00 | 68 | 1014.9 |
| 20260505200004 | 62 | 148 | 0.0 | 0.0 | 0.00 | 0.00 | 0.00 | 68 | 1015.2 |
| 20260505195003 | 62 | 145 | 0.0 | 0.0 | 0.00 | 0.00 | 0.00 | 68 | 1015.2 |
| 20260505194004 | 62 | 145 | 0.0 | 0.0 | 0.00 | 0.00 | 0.00 | 67 | 1015.3 |
| 20260505193003 | 62 | 145 | 0.0 | 2.0 | 0.00 | 0.00 | 0.00 | 68 | 1015.3 |
| 20260505190004 | 60 | 140 | 0.0 | 3.0 | 0.00 | 0.00 | 0.00 | 70 | 1015.2 |
| 20260505185004 | 60 | 152 | 1.0 | 2.0 | 0.00 | 0.00 | 0.00 | 69 | 1015.2 |
| 20260505183004 | 60 | 151 | 0.0 | 2.0 | 0.00 | 0.00 | 0.00 | 70 | 1015.2 |
| 20260505182003 | 60 | 144 | 0.0 | 3.0 | 0.00 | 0.00 | 0.00 | 71 | 1015.2 |
| 20260505180004 | 59 | 142 | 0.0 | 0.0 | 0.00 | 0.00 | 0.00 | 71 | 1015.1 |
| 20260505175004 | 59 | 142 | 0.0 | 3.0 | 0.00 | 0.00 | 0.00 | 70 | 1015.0 |
| 20260505174004 | 59 | 75 | 1.0 | 2.0 | 0.00 | 0.00 | 0.00 | 71 | 1014.9 |
| 20260505173003 | 59 | 69 | 3.0 | 3.0 | 0.00 | 0.00 | 0.00 | 71 | 1014.7 |
| 20260505172004 | 58 | 32 | 0.0 | 0.0 | 0.00 | 0.00 | 0.00 | 71 | 1014.6 |
| 20260505164004 | 58 | 205 | 0.0 | 0.0 | 0.00 | 0.00 | 0.00 | 73 | 1014.6 |
| 20260505163004 | 57 | 205 | 0.0 | 2.0 | 0.00 | 0.00 | 0.00 | 75 | 1014.4 |
| 20260505162003 | 57 | 210 | 0.0 | 0.0 | 0.00 | 0.00 | 0.00 | 75 | 1014.5 |
| 20260505161004 | 56 | 210 | 0.0 | 0.0 | 0.00 | 0.00 | 0.00 | 75 | 1014.5 |
| 20260505153003 | 55 | 272 | 0.0 | 0.0 | 0.00 | 0.00 | 0.00 | 78 | 1014.3 |
| 20260505152004 | 55 | 271 | 0.0 | 0.0 | 0.00 | 0.00 | 0.00 | 78 | 1014.2 |
| 20260505151004 | 55 | 271 | 0.0 | 0.0 | 0.00 | 0.00 | 0.00 | 79 | 1014.3 |
| 20260505125003 | 54 | 273 | 0.0 | 0.0 | 0.00 | 0.00 | 0.00 | 78 | 1013.6 |
| 20260505124004 | 54 | 273 | 0.0 | 0.0 | 0.00 | 0.00 | 0.00 | 78 | 1013.6 |
| 20260505123004 | 54 | 273 | 0.0 | 0.0 | 0.00 | 0.00 | 0.00 | 78 | 1013.6 |
| 20260505122004 | 54 | 273 | 0.0 | 0.0 | 0.00 | 0.00 | 0.00 | 78 | 1013.6 |
| 20260505121003 | 54 | 273 | 0.0 | 0.0 | 0.00 | 0.00 | 0.00 | 77 | 1013.7 |
| 20260505120005 | 54 | 273 | 0.0 | 0.0 | 0.00 | 0.00 | 0.00 | 77 | 1013.8 |
| 20260505114004 | 54 | 273 | 0.0 | 0.0 | 0.00 | 0.00 | 0.00 | 76 | 1013.8 |
| 20260505113005 | 54 | 273 | 0.0 | 0.0 | 0.00 | 0.00 | 0.00 | 76 | 1013.9 |
| 20260505112004 | 54 | 273 | 0.0 | 0.0 | 0.00 | 0.00 | 0.00 | 76 | 1013.7 |
| 20260505111003 | 54 | 273 | 0.0 | 0.0 | 0.00 | 0.00 | 0.00 | 76 | 1013.8 |
| 20260505102004 | 54 | 277 | 0.0 | 0.0 | 0.00 | 0.00 | 0.00 | 75 | 1013.7 |
| 20260505100004 | 54 | 277 | 0.0 | 0.0 | 0.00 | 0.00 | 0.00 | 75 | 1013.8 |
| 20260505095004 | 54 | 277 | 0.0 | 1.0 | 0.00 | 0.00 | 0.00 | 75 | 1013.8 |
| 20260505094005 | 54 | 277 | 0.0 | 3.0 | 0.00 | 0.00 | 0.00 | 74 | 1013.9 |
| 20260505093029 | 55 | 235 | 1.0 | 1.0 | 0.00 | 0.00 | 0.00 | 73 | 1014.0 |
| 20260505092003 | 55 | 76 | 0.0 | 2.0 | 0.00 | 0.00 | 0.00 | 73 | 1013.9 |
| 20260505090005 | 55 | 259 | 0.0 | 2.0 | 0.00 | 0.00 | 0.00 | 73 | 1014.2 |
| 20260505085004 | 55 | 262 | 0.0 | 3.0 | 0.00 | 0.00 | 0.00 | 73 | 1014.3 |
| 20260505084004 | 55 | 259 | 2.0 | 3.0 | 0.00 | 0.00 | 0.00 | 74 | 1014.3 |
| 20260505083012 | 55 | 202 | 0.0 | 2.0 | 0.00 | 0.00 | 0.00 | 75 | 1014.4 |
| 20260505082004 | 55 | 202 | 0.0 | 3.0 | 0.00 | 0.00 | 0.00 | 76 | 1014.4 |
| 20260505081004 | 55 | 248 | 3.0 | 3.0 | 0.00 | 0.00 | 0.00 | 77 | 1014.5 |
| 20260505080004 | 55 | 200 | 0.0 | 2.0 | 0.00 | 0.00 | 0.00 | 77 | 1014.6 |
| 20260505075004 | 55 | 223 | 0.0 | 2.0 | 0.00 | 0.00 | 0.00 | 78 | 1014.5 |
| 20260505074004 | 55 | 261 | 0.0 | 0.0 | 0.00 | 0.00 | 0.00 | 79 | 1014.5 |
| 20260505073004 | 55 | 278 | 0.0 | 0.0 | 0.00 | 0.00 | 0.00 | 79 | 1014.5 |
| 20260505072004 | 56 | 278 | 0.0 | 2.0 | 0.00 | 0.00 | 0.00 | 80 | 1014.4 |
| 20260505071004 | 56 | 278 | 0.0 | 0.0 | 0.00 | 0.00 | 0.00 | 79 | 1014.4 |
| 20260505070006 | 56 | 278 | 0.0 | 0.0 | 0.00 | 0.00 | 0.00 | 79 | 1014.1 |
| 20260505065004 | 56 | 278 | 0.0 | 0.0 | 0.00 | 0.00 | 0.00 | 78 | 1014.2 |
| 20260505064003 | 56 | 278 | 0.0 | 0.0 | 0.00 | 0.00 | 0.00 | 78 | 1014.2 |
| 20260505063003 | 56 | 278 | 0.0 | 2.0 | 0.00 | 0.00 | 0.00 | 78 | 1014.2 |
| 20260505060004 | 56 | 46 | 0.0 | 0.0 | 0.00 | 0.00 | 0.00 | 76 | 1013.9 |
| 20260505055003 | 57 | 46 | 0.0 | 2.0 | 0.00 | 0.00 | 0.00 | 75 | 1014.1 |
| 20260505054004 | 57 | 329 | 0.0 | 0.0 | 0.00 | 0.00 | 0.00 | 75 | 1014.1 |
| 20260505053004 | 57 | 246 | 0.0 | 2.0 | 0.00 | 0.00 | 0.00 | 75 | 1014.3 |
| 20260505052003 | 57 | 246 | 0.0 | 2.0 | 0.00 | 0.00 | 0.00 | 74 | 1014.5 |
| 20260505051004 | 57 | 173 | 0.0 | 3.0 | 0.00 | 0.00 | 0.00 | 74 | 1014.5 |
| 20260505041003 | 59 | 256 | 3.0 | 3.0 | 0.00 | 0.00 | 0.00 | 69 | 1013.9 |
| 20260505040005 | 59 | 236 | 0.0 | 4.0 | 0.00 | 0.00 | 0.00 | 68 | 1013.9 |
| 20260505035003 | 59 | 215 | 1.0 | 3.0 | 0.00 | 0.00 | 0.00 | 67 | 1013.7 |
| 20260505034003 | 59 | 216 | 0.0 | 1.0 | 0.00 | 0.00 | 0.00 | 66 | 1013.5 |
| 20260505033004 | 60 | 216 | 0.0 | 2.0 | 0.00 | 0.00 | 0.00 | 66 | 1013.4 |
| 20260505032003 | 60 | 226 | 0.0 | 3.0 | 0.00 | 0.00 | 0.00 | 66 | 1013.2 |
| 20260505031004 | 60 | 74 | 0.0 | 3.0 | 0.00 | 0.00 | 0.00 | 66 | 1013.3 |
| 20260505030004 | 60 | 264 | 0.0 | 3.0 | 0.00 | 0.00 | 0.00 | 66 | 1013.3 |
| 20260505025004 | 60 | 265 | 0.0 | 4.0 | 0.00 | 0.00 | 0.00 | 66 | 1013.3 |
| 20260505024004 | 60 | 235 | 1.0 | 3.0 | 0.00 | 0.00 | 0.00 | 65 | 1013.2 |
| 20260505023004 | 61 | 286 | 2.0 | 6.0 | 0.00 | 0.00 | 0.00 | 64 | 1013.2 |
| 20260505022004 | 61 | 231 | 2.0 | 6.0 | 0.00 | 0.00 | 0.00 | 63 | 1013.0 |
| 20260505021004 | 61 | 232 | 2.0 | 4.0 | 0.00 | 0.00 | 0.00 | 62 | 1013.2 |
| 20260505020005 | 62 | 220 | 1.0 | 4.0 | 0.00 | 0.00 | 0.00 | 62 | 1012.9 |
| 20260505015003 | 62 | 233 | 0.0 | 3.0 | 0.00 | 0.00 | 0.00 | 63 | 1013.0 |
| 20260505014004 | 62 | 232 | 1.0 | 4.0 | 0.00 | 0.00 | 0.00 | 63 | 1013.0 |
| 20260505012004 | 64 | 248 | 0.0 | 5.0 | 0.00 | 0.00 | 0.00 | 62 | 1013.2 |
| 20260505011004 | 64 | 96 | 1.0 | 7.0 | 0.00 | 0.00 | 0.00 | 62 | 1013.3 |
| 20260505010005 | 64 | 55 | 3.0 | 5.0 | 0.00 | 0.00 | 0.00 | 63 | 1013.3 |
| 20260505005004 | 64 | 71 | 0.0 | 4.0 | 0.00 | 0.00 | 0.00 | 64 | 1013.3 |
| 20260505004004 | 64 | 241 | 0.0 | 4.0 | 0.00 | 0.00 | 0.00 | 64 | 1013.4 |
| 20260505003003 | 64 | 360 | 2.0 | 4.0 | 0.00 | 0.00 | 0.00 | 63 | 1013.4 |
| 20260505002003 | 64 | 360 | 0.0 | 5.0 | 0.00 | 0.00 | 0.00 | 63 | 1013.4 |
| 20260505001004 | 64 | 273 | 1.0 | 4.0 | 0.00 | 0.00 | 0.00 | 63 | 1013.3 |
| 20260504232005 | 64 | 188 | 2.0 | 3.0 | 0.00 | 0.00 | 0.00 | 65 | 1013.3 |
| 20260504231004 | 64 | 269 | 2.0 | 4.0 | 0.00 | 0.00 | 0.00 | 61 | 1013.3 |
| 20260504230004 | 65 | 207 | 0.0 | 2.0 | 0.00 | 0.00 | 0.00 | 60 | 1013.3 |
| 20260504225004 | 65 | 360 | 0.0 | 0.0 | 0.00 | 0.00 | 0.00 | 59 | 1013.3 |
| 20260504224004 | 65 | 360 | 0.0 | 2.0 | 0.00 | 0.00 | 0.00 | 59 | 1013.2 |
| 20260504222005 | 65 | 360 | 0.0 | 3.0 | 0.00 | 0.00 | 0.00 | 59 | 1013.4 |
| 20260504221004 | 65 | 360 | 1.0 | 3.0 | 0.00 | 0.00 | 0.00 | 60 | 1013.4 |
| 20260504220003 | 66 | 360 | 0.0 | 3.0 | 0.00 | 0.00 | 0.00 | 59 | 1013.5 |